Location: Oregon Star Party
(44.2935°N, 120.1332°W)
Time: 01:52:29
(UTC-07:00)

Amateur Radio Satellites - All Passes

Search period start: 24 June 2017 01:22
Search period end: 25 June 2017 01:22
Location: Oregon Star Party, 44.2935°N, 120.1332°W

Satellite Date Start Highest point End Downlink Frequencies (MHz)
Time Altitude Azimuth
50 SAT 24 Jun 01:37:37 01:40:37 30° 263° (W) 01:43:39 437.505
FO-29 24 Jun 01:37:58 01:40:52 13° 312° (NW) 01:43:48 435.910
BUGSAT 1 24 Jun 01:37:59 01:42:11 54° 100° (E) 01:46:20 437.445
Oscar 19 24 Jun 01:38:57 01:42:58 23° 93° (E) 01:46:57 437.125/150
EO-79 24 Jun 01:40:04 01:44:00 36° 291° (WNW) 01:47:54 145.935-145.965
NO-84 24 Jun 01:40:16 01:43:33 21° 351° (N) 01:46:55 435.350 FM
DX 1 24 Jun 01:46:44 01:50:53 46° 260° (W) 01:55:04 434.975-435.025
RS-15 24 Jun 01:54:51 02:05:11 29° 351° (N) 02:15:23 29.354- 29.394
DUCHIFAT 1 24 Jun 01:56:26 02:00:10 30° 292° (WNW) 02:03:51 145.980
SPROUT 24 Jun 01:59:07 02:00:48 12° 271° (W) 02:02:30 437.525
NANOSAT C BR1 24 Jun 02:04:13 02:07:37 23° 294° (WNW) 02:10:59 145.865
UKube-1 24 Jun 02:07:43 02:11:46 40° 261° (W) 02:15:50 .
Gurwin Techsat 1B 24 Jun 02:17:28 02:22:14 32° 96° (E) 02:26:59 435.225
MOZHAYETS 4 24 Jun 02:39:57 02:43:51 27° 67° (ENE) 02:47:46
ITUPSAT 1 24 Jun 02:41:41 02:46:15 45° 70° (ENE) 02:50:50 437.325
BEESAT 24 Jun 02:52:44 02:57:25 58° 72° (ENE) 03:02:09 436.000
BUGSAT 1 24 Jun 03:14:31 03:17:06 16° 298° (WNW) 03:19:40 437.445
Oscar 19 24 Jun 03:17:36 03:22:31 47° 290° (WNW) 03:27:24 437.125/150
CUBESAT XI-V 24 Jun 03:18:02 03:20:23 14° 60° (ENE) 03:22:44 437.345
NO-84 24 Jun 03:18:52 03:22:20 22° 12° (NNE) 03:25:49 435.350 FM
AO-7 24 Jun 03:21:54 03:28:18 23° 92° (E) 03:34:38 .
ITAMSAT 1 24 Jun 03:51:19 03:55:57 31° 96° (E) 04:00:34 435.822/435.867
Gurwin Techsat 1B 24 Jun 03:57:22 04:02:11 36° 293° (WNW) 04:06:58 435.225
RS-15 24 Jun 04:11:25 04:22:29 36° 25° (NNE) 04:33:09 29.354- 29.394
MOZHAYETS 4 24 Jun 04:16:41 04:20:53 34° 264° (W) 04:25:07
ITUPSAT 1 24 Jun 04:20:35 04:24:16 22° 267° (W) 04:27:59 437.325
KKS-1 24 Jun 04:25:41 04:29:51 43° 70° (ENE) 04:34:05 437.445
BEESAT 24 Jun 04:32:32 04:35:34 17° 269° (W) 04:38:37 436.000
BEESAT 3 24 Jun 04:38:19 04:39:52 12° 33° (NNE) 04:41:24 437.485
CUBESAT XI-V 24 Jun 04:52:32 04:57:10 74° 258° (WSW) 05:01:48 437.345
NO-84 24 Jun 04:56:22 05:00:41 55° 32° (NNE) 05:04:55 435.350 FM
STARS 24 Jun 05:00:11 05:04:19 43° 70° (ENE) 05:08:30 437.465
AO-7 24 Jun 05:13:30 05:21:55 80° 291° (WNW) 05:30:16 .
AO-85 24 Jun 05:14:12 05:17:54 33° 48° (NE) 05:21:48 145.980
ITAMSAT 1 24 Jun 05:30:40 05:35:26 36° 293° (WNW) 05:40:10 435.822/435.867
BEESAT 2 24 Jun 05:32:52 05:35:10 14° 36° (NE) 05:37:27 435.950
DOVE 4 24 Jun 05:48:50 05:52:47 24° 94° (E) 05:56:53 437.250
KKS-1 24 Jun 06:03:25 06:06:37 19° 267° (W) 06:09:50 437.445
BEESAT 3 24 Jun 06:14:12 06:18:13 67° 54° (NE) 06:22:10 437.485
O/OREOS (USA 219) 24 Jun 06:21:20 06:23:01 12° 47° (NE) 06:24:41 437.305
CUTE-I 24 Jun 06:22:43 06:26:46 21° 92° (E) 06:30:47 437.470
RS-15 24 Jun 06:24:45 06:37:04 83° 54° (NE) 06:48:43 29.354- 29.394
STRAND 1 24 Jun 06:25:37 06:29:37 23° 63° (ENE) 06:33:39 437.568
NO-84 24 Jun 06:34:21 06:38:05 28° 231° (SW) 06:41:42 435.350 FM
STARS 24 Jun 06:37:43 06:40:51 19° 267° (W) 06:44:02 437.465
NUDT-PHONESAT 24 Jun 06:42:01 06:45:04 24° 95° (E) 06:48:06 437.300
XW-2F 24 Jun 06:52:07 06:55:42 40° 98° (E) 06:59:13 145.980 - 146.000
AO-85 24 Jun 06:54:39 06:58:13 28° 244° (WSW) 07:01:58 145.980
XW-2D 24 Jun 06:54:54 06:58:34 47° 99° (E) 07:02:12 145.860 - 145.880
LilacSat-2 24 Jun 07:01:08 07:04:55 58° 101° (E) 07:08:37 437.200
XW-2B 24 Jun 07:03:48 07:07:33 59° 100° (E) 07:11:15 145.730 - 145.750
HO-68 24 Jun 07:04:22 07:09:01 18° 89° (E) 07:13:38 435.675
AO-7 24 Jun 07:07:36 07:13:27 22° 312° (NW) 07:19:19 .
BEESAT 2 24 Jun 07:09:26 07:13:31 89° 34° (NNE) 07:17:34 435.950
XW-2C 24 Jun 07:19:11 07:22:59 87° 285° (WNW) 07:26:44 145.795 - 145.815
CUTE 1.7 + AOD 2 24 Jun 07:19:39 07:21:59 14° 90° (E) 07:24:18 437.475
DOVE 4 24 Jun 07:26:01 07:30:35 43° 289° (WNW) 07:35:21 437.250
KAITUO 1B 24 Jun 07:37:21 07:41:03 67° 284° (WNW) 07:44:42 145.475/437.950
UWE-3 24 Jun 07:52:39 07:53:54 11° 87° (E) 07:55:06 435.000/436.395/437.385
BEESAT 3 24 Jun 07:53:33 07:55:15 12° 251° (WSW) 07:56:55 437.485
XW-2A 24 Jun 07:56:24 07:59:11 23° 95° (E) 08:01:57 145.665 - 145.685
O/OREOS (USA 219) 24 Jun 07:58:40 08:03:10 84° 66° (ENE) 08:07:38 437.305
AAUSAT CUBESAT 2 24 Jun 08:01:32 08:03:08 12° 89° (E) 08:04:45 437.432
CUTE-I 24 Jun 08:01:52 08:07:08 55° 290° (WNW) 08:12:21 437.470
STRAND 1 24 Jun 08:03:30 08:08:28 49° 260° (W) 08:13:29 437.568
Tancredo 1 24 Jun 08:07:19 08:08:42 13° 133° (SE) 08:10:05 437.200
YUBILEINY 24 Jun 08:09:22 08:16:30 26° 63° (ENE) 08:23:34 435.215
NUDT-PHONESAT 24 Jun 08:15:52 08:18:54 24° 292° (WNW) 08:21:55 437.300
FO-29 24 Jun 08:21:06 08:25:21 19° 54° (NE) 08:29:55 435.910
XW-2F 24 Jun 08:27:11 08:29:30 16° 295° (WNW) 08:31:49 145.980 - 146.000
XW-2D 24 Jun 08:30:21 08:32:22 14° 296° (WNW) 08:34:22 145.860 - 145.880
LilacSat-2 24 Jun 08:37:14 08:38:42 12° 298° (WNW) 08:40:08 437.200
TIGRISAT 24 Jun 08:38:20 08:39:44 11° 58° (ENE) 08:41:08 435.000
RS-15 24 Jun 08:38:30 08:48:08 30° 258° (WSW) 08:57:26 29.354- 29.394
SEEDS 24 Jun 08:39:23 08:43:33 69° 102° (ESE) 08:47:40 437.485
XW-2B 24 Jun 08:39:51 08:41:14 12° 298° (WNW) 08:42:37 145.730 - 145.750
M-CUBED/EXP-1 PRIME 24 Jun 08:46:56 08:49:50 29° 65° (ENE) 08:52:43 437.505
CUBEBUG 2 24 Jun 08:49:22 08:54:08 71° 102° (ESE) 08:58:44 437.445
HO-68 24 Jun 08:50:23 08:57:37 87° 288° (WNW) 09:04:47 435.675
AO-73 24 Jun 08:51:08 08:54:40 23° 93° (E) 08:58:07 145.935
CUTE 1.7 + AOD 2 24 Jun 08:54:02 08:58:07 52° 287° (WNW) 09:02:12 437.475
PRISM 24 Jun 08:55:56 08:58:24 16° 63° (ENE) 09:00:52 437.425
UNISAT 6 24 Jun 09:17:02 09:20:56 28° 66° (ENE) 09:24:54 437.425
Oscar 11 24 Jun 09:19:45 09:23:42 34° 96° (E) 09:27:37 .
ZACube-1 24 Jun 09:24:39 09:29:06 56° 100° (E) 09:33:24 437.345
UWE-3 24 Jun 09:26:18 09:30:57 80° 284° (WNW) 09:35:27 435.000/436.395/437.385
XW-2A 24 Jun 09:29:10 09:31:50 21° 292° (WNW) 09:34:27 145.665 - 145.685
AAUSAT CUBESAT 2 24 Jun 09:34:55 09:38:59 60° 286° (WNW) 09:43:02 437.432
Tancredo 1 24 Jun 09:40:50 09:43:53 83° 332° (NNW) 09:46:56 437.200
DELFI C3 24 Jun 09:40:55 09:43:09 15° 91° (E) 09:45:23 145.870
ISS 24 Jun 09:42:43 09:45:55 53° 144° (SE) 09:49:08 437.550
FO-29 24 Jun 10:03:20 10:09:21 87° 254° (WSW) 10:16:16 435.910
YUBILEINY 24 Jun 10:05:25 10:14:15 76° 266° (W) 10:23:00 435.215
TIGRISAT 24 Jun 10:11:01 10:15:37 86° 77° (ENE) 10:20:19 435.000
SEEDS 24 Jun 10:16:58 10:18:40 12° 299° (WNW) 10:20:21 437.485
M-CUBED/EXP-1 PRIME 24 Jun 10:22:22 10:24:24 15° 261° (W) 10:26:26 437.505
AO-73 24 Jun 10:26:53 10:31:00 36° 290° (WNW) 10:35:00 145.935
CUBEBUG 2 24 Jun 10:27:28 10:30:07 15° 299° (WNW) 10:32:45 437.445
PRISM 24 Jun 10:29:22 10:33:18 48° 260° (W) 10:37:15 437.425
QB50P2 24 Jun 10:35:09 10:37:11 13° 61° (ENE) 10:39:13 145.880/145.840
HO-68 24 Jun 10:39:31 10:44:23 20° 307° (NW) 10:49:14 435.675
UNISAT 6 24 Jun 10:53:22 10:57:31 33° 264° (W) 11:01:46 437.425
Oscar 11 24 Jun 10:56:13 10:59:40 24° 294° (WNW) 11:03:06 .
EO-79 24 Jun 10:58:49 11:01:59 21° 65° (ENE) 11:05:11 145.935-145.965
EO-88 24 Jun 10:59:30 11:03:11 82° 103° (ESE) 11:06:49 145.990 - 145.960
ZACube-1 24 Jun 11:02:05 11:04:54 17° 298° (WNW) 11:07:39 437.345
UWE-3 24 Jun 11:06:01 11:06:33 10° 303° (WNW) 11:07:06 435.000/436.395/437.385
DUCHIFAT 1 24 Jun 11:14:11 11:17:35 24° 66° (ENE) 11:21:01 145.980
DELFI C3 24 Jun 11:14:24 11:18:10 45° 288° (WNW) 11:21:56 145.870
Tancredo 1 24 Jun 11:17:16 11:19:48 23° 348° (NNW) 11:22:21 437.200
ISS 24 Jun 11:19:31 11:22:32 32° 342° (NNW) 11:25:34 437.550
NANOSAT C BR1 24 Jun 11:21:33 11:25:17 31° 69° (ENE) 11:29:04 145.865
ESTCUBE 1 24 Jun 11:26:49 11:29:27 15° 91° (E) 11:32:04 437.505/2401.250
LO-87 24 Jun 11:27:09 11:30:04 22° 95° (E) 11:32:58 145.935 - 145.965
AIST 2D 24 Jun 11:40:05 11:43:36 67° 259° (WSW) 11:47:10 435.315
TIGRISAT 24 Jun 11:52:13 11:52:57 10° 273° (W) 11:53:40 435.000
FO-29 24 Jun 11:52:31 11:55:39 14° 277° (W) 11:58:57 435.910
POLYITAN 1 24 Jun 11:57:22 12:01:38 84° 76° (ENE) 12:05:57 437.675
YUBILEINY 24 Jun 12:04:52 12:09:26 15° 287° (WNW) 12:14:01 435.215
QB50P2 24 Jun 12:08:11 12:12:24 68° 258° (WSW) 12:16:42 145.880/145.840
PCSat 24 Jun 12:17:50 12:22:48 38° 112° (ESE) 12:27:47 145.827
BUGSAT 1 24 Jun 12:28:50 12:32:46 45° 71° (ENE) 12:36:48 437.445
EO-79 24 Jun 12:33:31 12:37:29 39° 262° (W) 12:41:31 145.935-145.965
AO-7 24 Jun 12:38:04 12:39:26 10° 35° (NE) 12:40:48 .
DUCHIFAT 1 24 Jun 12:49:17 12:53:06 33° 263° (W) 12:56:58 145.980
Tancredo 1 24 Jun 12:53:38 12:56:05 21° 8° (N) 12:58:32 437.200
ISS 24 Jun 12:57:00 12:59:41 22° 2° (N) 13:02:20 437.550
Oscar 19 24 Jun 12:57:02 13:01:48 39° 68° (ENE) 13:06:34 437.125/150
NANOSAT C BR1 24 Jun 12:57:31 13:01:01 24° 265° (W) 13:04:31 145.865
50 SAT 24 Jun 12:59:20 13:00:57 13° 92° (E) 13:02:34 437.505
LO-87 24 Jun 13:00:26 13:03:28 25° 291° (WNW) 13:06:29 145.935 - 145.965
ESTCUBE 1 24 Jun 13:02:12 13:06:36 56° 287° (WNW) 13:10:58 437.505/2401.250
VELOX 1 24 Jun 13:09:19 13:13:32 42° 99° (E) 13:17:45 145.980
DX 1 24 Jun 13:33:22 13:37:01 25° 95° (E) 13:40:39 434.975-435.025
SPROUT 24 Jun 13:39:54 13:44:14 80° 283° (WNW) 13:48:31 437.525
Gurwin Techsat 1B 24 Jun 13:39:56 13:45:08 60° 71° (ENE) 13:50:23 435.225
UKube-1 24 Jun 13:53:01 13:56:45 28° 96° (E) 14:00:27 .
SO-50 24 Jun 13:56:25 13:59:01 15° 110° (ESE) 14:01:35 436.795
PCSat 24 Jun 14:01:12 14:06:12 37° 311° (NW) 14:11:14 145.827
BUGSAT 1 24 Jun 14:05:44 14:08:23 16° 268° (W) 14:11:03 437.445
AO-7 24 Jun 14:22:22 14:29:53 40° 58° (ENE) 14:37:26 .
Tancredo 1 24 Jun 14:29:05 14:32:07 60° 28° (NNE) 14:35:08 437.200
50 SAT 24 Jun 14:30:44 14:33:55 38° 288° (WNW) 14:37:07 437.505
ISS 24 Jun 14:33:35 14:36:45 41° 22° (NNE) 14:39:55 437.550
Oscar 19 24 Jun 14:36:49 14:41:12 28° 265° (W) 14:45:36 437.125/150
VELOX 1 24 Jun 14:46:25 14:49:42 21° 296° (WNW) 14:53:00 145.980
BEESAT 24 Jun 14:53:02 14:55:10 13° 89° (E) 14:57:17 436.000
DX 1 24 Jun 15:09:20 15:13:13 32° 292° (WNW) 15:17:05 434.975-435.025
ITAMSAT 1 24 Jun 15:10:36 15:15:40 56° 71° (ENE) 15:20:47 435.822/435.867
Gurwin Techsat 1B 24 Jun 15:21:49 15:25:29 19° 269° (W) 15:29:11 435.225
UKube-1 24 Jun 15:28:59 15:32:43 29° 293° (WNW) 15:36:27 .
SO-50 24 Jun 15:34:23 15:38:56 69° 307° (NW) 15:43:27 436.795
Tancredo 1 24 Jun 16:05:17 16:07:26 18° 225° (SW) 16:09:35 437.200
MOZHAYETS 4 24 Jun 16:09:29 16:13:57 49° 99° (E) 16:18:22
ISS 24 Jun 16:10:10 16:13:12 34° 220° (SW) 16:16:13 437.550
AO-7 24 Jun 16:14:20 16:22:24 53° 258° (WSW) 16:30:34 .
ITUPSAT 1 24 Jun 16:17:52 16:22:43 85° 107° (ESE) 16:27:30 437.325
BEESAT 24 Jun 16:28:40 16:33:28 75° 286° (WNW) 16:38:13 436.000
CUBESAT XI-V 24 Jun 16:47:53 16:51:36 24° 94° (E) 16:55:19 437.345
ITAMSAT 1 24 Jun 16:51:46 16:55:29 20° 268° (W) 16:59:14 435.822/435.867
DOVE 4 24 Jun 16:56:32 16:59:53 24° 66° (ENE) 17:03:20 437.250
SO-50 24 Jun 17:17:48 17:20:13 14° 328° (NNW) 17:22:40 436.795
NUDT-PHONESAT 24 Jun 17:23:28 17:25:44 15° 65° (ENE) 17:27:59 437.300
XW-2F 24 Jun 17:34:33 17:37:43 25° 69° (ENE) 17:40:53 145.980 - 146.000
HO-68 24 Jun 17:35:52 17:40:29 19° 52° (NE) 17:45:07 435.675
XW-2D 24 Jun 17:37:34 17:40:54 29° 70° (ENE) 17:44:15 145.860 - 145.880
LilacSat-2 24 Jun 17:44:16 17:47:49 36° 71° (ENE) 17:51:23 437.200
CUTE-I 24 Jun 17:45:45 17:50:42 40° 67° (ENE) 17:55:40 437.470
XW-2B 24 Jun 17:46:20 17:49:50 35° 71° (ENE) 17:53:22 145.730 - 145.750
MOZHAYETS 4 24 Jun 17:47:29 17:50:45 19° 297° (WNW) 17:54:00
KKS-1 24 Jun 17:50:57 17:55:27 70° 103° (ESE) 17:59:55 437.445
ITUPSAT 1 24 Jun 17:57:39 17:59:50 13° 302° (WNW) 18:02:00 437.325
XW-2C 24 Jun 18:01:28 18:05:14 54° 74° (ENE) 18:09:00 145.795 - 145.815
BEESAT 24 Jun 18:09:54 18:10:23 10° 304° (NW) 18:10:52 436.000
CUTE 1.7 + AOD 2 24 Jun 18:14:17 18:16:29 14° 62° (ENE) 18:18:39 437.475
KAITUO 1B 24 Jun 18:18:15 18:22:01 67° 75° (ENE) 18:25:46 145.475/437.950
STARS 24 Jun 18:23:40 18:28:07 67° 102° (ESE) 18:32:31 437.465
CUBESAT XI-V 24 Jun 18:24:50 18:29:04 37° 290° (WNW) 18:33:16 437.345
XW-2A 24 Jun 18:30:42 18:31:54 11° 64° (ENE) 18:33:05 145.665 - 145.685
DOVE 4 24 Jun 18:33:47 18:37:28 31° 264° (W) 18:41:17 437.250
UWE-3 24 Jun 18:50:57 18:52:51 12° 59° (ENE) 18:54:46 435.000/436.395/437.385
AAUSAT CUBESAT 2 24 Jun 18:54:10 18:55:13 11° 61° (ENE) 18:56:17 437.432
NUDT-PHONESAT 24 Jun 18:55:42 18:59:17 42° 262° (W) 19:02:53 437.300
XW-2F 24 Jun 19:08:36 19:11:47 25° 265° (W) 19:14:59 145.980 - 146.000
XW-2D 24 Jun 19:12:06 19:15:06 21° 266° (W) 19:18:06 145.860 - 145.880
LilacSat-2 24 Jun 19:19:32 19:22:13 18° 267° (W) 19:24:54 437.200
HO-68 24 Jun 19:19:58 19:27:10 81° 70° (ENE) 19:34:24 435.675
XW-2B 24 Jun 19:21:28 19:24:09 18° 268° (W) 19:26:49 145.730 - 145.750
PCSat 24 Jun 19:22:11 19:24:02 12° 29° (NNE) 19:25:53 145.827
CUTE-I 24 Jun 19:26:17 19:30:50 29° 265° (W) 19:35:27 437.470
KKS-1 24 Jun 19:29:07 19:31:26 14° 300° (WNW) 19:33:46 437.445
SEEDS 24 Jun 19:32:05 19:36:12 56° 73° (ENE) 19:40:19 437.485
XW-2C 24 Jun 19:38:15 19:39:45 12° 270° (W) 19:41:13 145.795 - 145.815
CUTE 1.7 + AOD 2 24 Jun 19:47:35 19:51:48 63° 259° (W) 19:56:02 437.475
AO-73 24 Jun 19:47:51 19:51:24 23° 65° (ENE) 19:55:00 145.935
CUBEBUG 2 24 Jun 19:48:18 19:52:50 68° 74° (ENE) 19:57:33 437.445
XW-2A 24 Jun 20:00:52 20:04:13 49° 261° (W) 20:07:35 145.665 - 145.685
STARS 24 Jun 20:01:32 20:03:55 14° 299° (WNW) 20:06:18 437.465
STRAND 1 24 Jun 20:12:09 20:17:11 50° 100° (E) 20:22:09 437.568
Oscar 11 24 Jun 20:15:51 20:19:43 32° 69° (ENE) 20:23:36 .
ZACube-1 24 Jun 20:21:14 20:25:40 53° 72° (ENE) 20:30:09 437.345
UWE-3 24 Jun 20:23:59 20:28:34 85° 254° (WSW) 20:33:17 435.000/436.395/437.385
AAUSAT CUBESAT 2 24 Jun 20:25:56 20:30:04 78° 258° (WSW) 20:34:12 437.432
DELFI C3 24 Jun 20:29:06 20:30:20 11° 62° (ENE) 20:31:34 145.870
RS-15 24 Jun 20:49:05 21:00:19 47° 109° (ESE) 21:11:45 29.354- 29.394
PCSat 24 Jun 21:03:41 21:08:54 45° 52° (NE) 21:14:04 145.827
AO-85 24 Jun 21:10:04 21:14:03 56° 121° (ESE) 21:17:55 145.980
SEEDS 24 Jun 21:10:08 21:12:14 13° 270° (W) 21:14:20 437.485
HO-68 24 Jun 21:10:38 21:15:39 20° 270° (W) 21:20:42 435.675
FO-29 24 Jun 21:12:01 21:16:43 17° 85° (E) 21:21:22 435.910
YUBILEINY 24 Jun 21:13:28 21:20:25 27° 80° (E) 21:27:22 435.215
AO-73 24 Jun 21:23:07 21:27:23 40° 263° (W) 21:31:43 145.935
CUBEBUG 2 24 Jun 21:27:42 21:29:57 13° 272° (W) 21:32:15 437.445
EO-88 24 Jun 21:38:27 21:41:55 42° 72° (ENE) 21:45:25 145.990 - 145.960
BEESAT 3 24 Jun 21:42:05 21:46:03 70° 121° (ESE) 21:50:04 437.485
NO-84 24 Jun 21:51:51 21:55:09 26° 129° (SE) 21:58:39 435.350 FM
STRAND 1 24 Jun 21:52:01 21:56:01 23° 297° (WNW) 22:00:01 437.568
Oscar 11 24 Jun 21:52:17 21:55:52 25° 266° (W) 21:59:29 .
M-CUBED/EXP-1 PRIME 24 Jun 21:57:15 21:59:56 19° 100° (E) 22:02:43 437.505
ZACube-1 24 Jun 21:59:17 22:02:15 17° 270° (W) 22:05:15 437.345
DELFI C3 24 Jun 22:00:40 22:04:35 67° 260° (W) 22:08:29 145.870
TIGRISAT 24 Jun 22:02:06 22:05:09 17° 90° (E) 22:08:08 435.000
LO-87 24 Jun 22:06:03 22:07:37 13° 64° (ENE) 22:09:11 145.935 - 145.965
PRISM 24 Jun 22:09:32 22:12:29 19° 93° (E) 22:15:25 437.425
O/OREOS (USA 219) 24 Jun 22:12:13 22:16:45 73° 110° (ESE) 22:21:16 437.305
SO-50 24 Jun 22:24:10 22:27:57 25° 42° (NE) 22:31:43 436.795
ESTCUBE 1 24 Jun 22:27:50 22:30:53 18° 63° (ENE) 22:33:57 437.505/2401.250
BEESAT 2 24 Jun 22:39:04 22:43:03 84° 303° (WNW) 22:47:07 435.950
UNISAT 6 24 Jun 22:42:54 22:47:26 46° 99° (E) 22:51:50 437.425
PCSat 24 Jun 22:47:26 22:52:07 30° 250° (WSW) 22:56:45 145.827
AO-85 24 Jun 22:51:55 22:54:44 18° 320° (NW) 22:57:32 145.980
FO-29 24 Jun 22:54:55 23:02:46 79° 103° (ESE) 23:10:35 435.910
RS-15 24 Jun 23:00:24 23:12:31 63° 313° (NW) 23:24:49 29.354- 29.394
SPROUT 24 Jun 23:02:31 23:03:18 10° 59° (ENE) 23:04:06 437.525
YUBILEINY 24 Jun 23:07:38 23:16:24 70° 281° (WNW) 23:25:16 435.215
EO-88 24 Jun 23:13:53 23:15:49 14° 269° (W) 23:17:45 145.990 - 145.960
BEESAT 3 24 Jun 23:21:24 23:24:05 17° 321° (NW) 23:26:46 437.485
NO-84 24 Jun 23:28:32 23:32:30 54° 328° (NNW) 23:36:44 435.350 FM
M-CUBED/EXP-1 PRIME 24 Jun 23:31:04 23:34:26 35° 294° (WNW) 23:38:01 437.505
LO-87 24 Jun 23:37:12 23:40:38 47° 261° (W) 23:44:07 145.935 - 145.965
TIGRISAT 24 Jun 23:37:35 23:42:10 54° 288° (WNW) 23:46:37 435.000
POLYITAN 1 24 Jun 23:42:27 23:44:15 12° 89° (E) 23:46:03 437.675
PRISM 24 Jun 23:44:05 23:47:53 38° 290° (WNW) 23:51:42 437.425
QB50P2 24 Jun 23:52:19 23:55:13 17° 92° (E) 23:58:05 145.880/145.840
O/OREOS (USA 219) 24 Jun 23:54:02 23:56:42 15° 311° (NW) 23:59:21 437.305
ESTCUBE 1 25 Jun 00:02:56 00:07:19 51° 260° (W) 00:11:42 437.505/2401.250
SO-50 25 Jun 00:04:16 00:08:38 49° 241° (WSW) 00:13:01 436.795
VELOX 1 25 Jun 00:07:49 00:11:58 45° 71° (ENE) 00:16:11 145.980
EO-79 25 Jun 00:16:28 00:20:12 28° 96° (E) 00:23:53 145.935-145.965
BEESAT 2 25 Jun 00:19:21 00:21:27 14° 324° (NW) 00:23:36 435.950
UNISAT 6 25 Jun 00:20:20 00:23:47 21° 296° (WNW) 00:27:12 437.425
DX 1 25 Jun 00:30:19 00:33:59 28° 67° (ENE) 00:37:40 434.975-435.025
DUCHIFAT 1 25 Jun 00:31:15 00:35:08 33° 97° (E) 00:38:58 145.980
SPROUT 25 Jun 00:34:14 00:38:30 88° 246° (WSW) 00:42:49 437.525
AIST 2D 25 Jun 00:36:37 00:40:07 67° 284° (WNW) 00:43:34 435.315
NANOSAT C BR1 25 Jun 00:39:12 00:43:20 45° 99° (E) 00:47:24 145.865
FO-29 25 Jun 00:40:53 00:47:00 27° 302° (WNW) 00:53:12 435.910
UKube-1 25 Jun 00:48:51 00:52:33 29° 67° (ENE) 00:56:18 .
50 SAT 25 Jun 01:03:26 01:06:49 89° 280° (W) 01:10:13 437.505
NO-84 25 Jun 01:07:32 01:10:53 22° 349° (N) 01:14:18 435.350 FM
Oscar 19 25 Jun 01:09:10 01:10:45 11° 87° (E) 01:12:19 437.125/150
YUBILEINY 25 Jun 01:10:06 01:15:07 16° 305° (NW) 01:20:08 435.215
